CAPE
0 0 0 0 0 0 0 0 0 0 0 0 0 0 229 202 156 238 341 498 472 686 459 399 298 406 396 418 460 381 389 355 417 332 302 201 81 109 159 167 196 302 373 644 802 887 781 718 852 1059 1015 965 823 839 814 685 599 387 43 290 325 355 329 0 0 0 0 0 0 0 0 0 0 0 0 0 0 0 0 0 0 0 0 0 0 0
0 0 0 0 0 0 0 0 0 0 0 0 0 2 41 50 57 465 538 463 493 516 346 348 218 266 299 403 394 238 416 308 256 397 222 328 177 143 168 187 204 283 406 732 773 844 764 825 923 1062 989 957 841 821 914 781 696 367 24 160 366 481 382 0 0 0 0 0 0 0 0 0 2 0 0 0 0 0 0 0 0 0 0 0 0 0
0 0 0 0 0 0 0 0 0 0 0 0 30 0 26 39 235 155 286 424 594 490 264 238 251 158 268 329 363 335 287 314 344 199 174 186 203 135 231 184 185 390 566 705 834 748 612 816 932 945 1036 928 879 807 806 870 750 362 341 339 378 426 366 124 0 0 0 0 4 0 3 2 0 0 0 0 0 0 0 0 0 0 0 0 0 0
0 0 0 7 0 0 0 0 0 0 0 3 14 46 61 54 59 7 0 318 403 344 300 76 51 251 219 212 222 89 185 163 238 267 254 257 230 50 223 81 266 326 505 615 656 710 735 736 823 998 890 886 812 810 697 681 610 381 353 392 382 347 367 324 8 0 0 0 13 4 4 3 0 0 0 0 0 0 0 0 0 0 0 0 0 0
0 0 0 7 0 0 0 0 0 0 0 0 16 47 60 30 12 0 184 276 262 189 23 81 64 198 228 244 312 354 324 64 14 275 269 273 215 79 93 38 374 317 449 573 599 549 679 712 847 955 982 859 832 840 736 563 534 470 402 379 422 412 435 370 0 0 0 0 0 0 0 0 0 0 0 0 0 0 0 0 0 0 0 0 0 0
0 0 0 0 1 0 0 0 0 0 0 2 2 26 0 0 0 2 272 181 0 53 30 27 23 67 189 209 240 308 238 216 171 166 208 282 116 25 29 128 278 378 576 640 630 600 647 730 776 763 787 842 813 713 700 713 725 656 527 432 462 480 493 354 275 110 6 0 1 21 16 0 0 0 0 0 0 0 0 0 0 0 0 0 0 0
0 0 0 0 0 0 0 0 0 1 14 20 11 66 63 0 0 0 196 98 0 6 6 32 4 33 99 143 143 209 285 240 61 45 241 286 292 33 238 350 264 339 398 568 531 634 656 638 602 585 602 695 628 638 724 835 859 847 753 588 532 540 538 425 270 203 9 0 25 37 10 0 0 0 0 0 0 0 0 0 0 0 0 0 0 0
4 0 0 0 0 0 0 0 0 0 2 7 16 24 4 0 0 0 66 0 0 0 0 2 5 3 25 0 175 128 103 217 6 80 175 133 114 210 277 201 269 405 582 586 526 628 609 572 577 498 479 540 502 525 595 718 754 804 817 710 637 586 599 497 256 0 0 52 56 38 0 0 0 0 0 0 0 0 0 0 0 0 0 0 0 0
0 0 0 0 0 0 0 0 0 0 0 0 24 22 23 0 0 0 0 0 0 0 0 0 0 10 4 0 0 64 1 35 37 40 243 113 68 71 154 177 262 290 316 491 488 456 549 596 542 483 404 410 435 514 594 613 609 599 630 629 604 602 553 507 289 130 46 58 62 12 0 0 0 0 0 0 0 0 0 0 0 0 0 0 0 0
0 0 0 0 0 0 0 0 0 0 2 10 5 30 3 0 0 0 0 0 0 0 4 80 3 8 5 3 0 0 33 47 71 14 63 127 131 14 96 166 124 289 224 244 299 417 442 462 444 434 470 403 389 392 465 604 669 621 602 654 711 661 278 470 263 167 93 80 56 0 0 0 0 0 0 0 0 0 0 0 0 0 0 0 0 0
0 286 0 0 0 0 0 0 0 0 4 10 14 21 15 0 0 0 0 6 0 31 12 103 61 5 11 6 24 108 6 27 23 22 111 0 82 80 105 164 190 228 213 45 3 214 411 405 370 356 453 508 430 438 488 524 480 426 532 589 645 525 420 419 317 185 148 153 120 35 32 0 0 0 0 0 0 0 0 0 0 0 0 0 0 0
0 0 0 0 59 0 0 0 0 0 2 1 7 8 4 0 0 0 0 0 10 0 5 59 0 2 2 0 4 0 1 5 4 10 1 142 0 30 13 73 183 135 79 12 54 127 264 367 320 319 375 480 493 486 527 517 492 458 384 492 543 547 483 387 327 234 187 271 318 118 38 0 0 0 0 0 0 0 0 0 0 0 0 0 0 0
0 0 0 0 417 0 0 0 0 0 0 0 0 0 0 0 0 0 0 0 1 2 11 26 0 11 1 0 92 0 7 3 1 1 0 19 1 0 4 18 3 4 11 13 93 128 160 163 145 265 401 487 525 518 496 473 514 522 462 407 484 535 419 368 345 277 256 348 418 206 36 0 0 0 0 0 0 0 0 0 0 0 0 0 0 0
0 0 0 0 0 69 0 0 0 0 0 0 0 1 0 1 3 9 3 1 10 0 17 0 0 4 3 20 216 190 244 255 233 235 254 185 85 0 3 0 5 3 15 56 87 137 178 185 248 286 371 394 378 370 407 443 464 484 452 462 557 587 406 421 391 408 309 367 458 145 24 27 4 0 0 0 0 0 0 0 0 0 0 0 0 0
0 1 0 0 0 0 1 0 0 0 0 0 0 0 0 0 0 0 0 7 1 5 0 0 1 6 27 81 278 264 327 378 273 240 35 1 0 0 0 0 0 0 11 229 215 96 122 134 89 117 322 397 401 387 324 354 442 498 545 582 602 528 442 462 525 542 518 495 324 68 39 29 23 0 0 0 0 0 0 0 0 0 0 0 0 0
1 0 0 0 0 0 0 0 0 0 0 0 0 0 0 0 0 0 0 0 0 1 0 4 5 6 66 120 204 289 348 364 238 170 119 72 227 80 16 1 96 181 65 128 231 309 226 224 150 296 374 373 396 356 317 332 468 556 597 567 605 512 472 480 452 510 402 426 60 86 41 31 0 0 0 0 0 0 0 0 0 0 0 0 0 0
0 0 0 0 0 0 0 0 0 0 32 0 0 0 0 0 0 0 0 0 0 0 0 0 1 2 28 154 260 189 200 285 265 169 128 132 209 231 227 272 303 180 191 165 426 358 375 396 377 446 468 475 400 385 399 472 614 647 559 484 498 390 349 338 334 565 422 314 12 0 0 0 0 0 0 0 0 0 0 0 0 0 0 0 0 0
0 0 0 0 0 0 2 1 0 0 0 0 0 0 0 0 0 0 0 0 1 0 0 2 5 7 7 12 97 102 187 240 308 210 230 208 225 227 298 415 337 282 362 400 406 442 483 364 324 356 348 384 389 424 503 536 515 520 394 334 286 322 333 374 394 475 251 189 234 234 81 0 0 60 51 54 0 0 3 9 0 0 0 0 0 0
0 0 0 0 0 0 0 0 0 0 0 0 0 0 0 0 4 0 0 4 5 0 1 10 11 11 4 24 45 70 100 163 212 272 268 324 348 370 428 375 330 306 361 413 333 81 107 6 272 366 348 301 326 350 460 328 263 96 328 422 424 473 481 405 419 341 322 230 198 142 0 70 55 48 101 122 30 0 0 0 0 0 0 0 0 0
0 0 0 0 0 0 0 0 5 0 0 30 4 0 0 0 0 3 0 0 5 1 2 3 2 1 1 32 86 53 92 108 117 131 216 307 340 459 362 287 324 347 316 246 247 245 400 330 378 307 302 382 353 390 487 402 541 470 407 477 531 460 383 327 292 348 374 337 217 227 176 238 198 116 161 177 96 0 0 89 112 94 0 0 0 12
0 0 0 0 0 0 0 0 0 0 0 0 0 0 0 0 0 0 0 3 5 6 0 0 1 2 2 4 8 81 98 120 99 136 196 211 244 251 220 90 173 219 36 168 310 427 460 412 140 282 95 306 296 296 513 538 620 536 409 448 498 520 525 490 514 447 417 375 158 254 272 243 269 277 292 304 238 186 179 213 290 237 127 92 44 0
0 0 0 0 0 0 0 0 0 0 0 0 0 0 0 0 0 0 0 0 0 0 0 0 1 4 0 10 4 16 128 146 168 199 235 215 190 190 47 21 54 250 362 394 414 429 207 177 188 232 301 376 528 507 591 541 486 425 397 446 507 528 588 687 563 446 519 473 432 437 414 365 478 482 402 238 292 264 274 239 326 288 322 323 276 10
0 0 0 0 0 0 0 0 0 0 0 0 0 0 0 0 0 0 0 0 0 0 0 0 1 1 3 30 78 98 116 170 203 235 227 174 129 77 48 246 242 322 356 364 378 387 164 274 326 428 452 464 457 490 498 451 496 487 386 451 476 500 574 517 516 498 436 453 497 475 533 556 503 421 444 295 341 368 391 487 484 426 391 394 355 385
956 0 0 0 0 0 0 0 0 0 0 0 0 0 0 0 0 0 0 0 0 0 0 0 0 0 0 26 65 166 149 295 270 187 219 195 127 123 101 173 286 310 274 314 386 341 325 349 398 332 295 367 410 389 349 492 431 463 472 429 377 326 414 446 488 514 542 591 622 623 664 602 551 512 494 491 459 473 508 532 560 585 563 536 545 503
0 0 0 0 0 0 0 0 0 0 0 0 0 0 0 0 0 0 0 0 0 0 0 0 0 0 0 13 22 120 182 216 349 330 245 160 141 179 230 240 266 296 272 294 294 300 299 316 282 302 349 331 321 230 283 361 360 474 604 644 598 594 628 610 577 544 485 516 535 532 506 496 477 517 507 456 445 506 579 563 566 566 480 438 263 441
0 0 0 0 0 0 0 0 0 0 0 0 0 0 0 0 0 0 0 0 0 0 0 0 0 0 1 46 83 223 197 245 363 295 206 188 150 98 50 6 70 77 58 50 120 212 235 241 252 265 278 300 285 261 267 272 279 269 285 333 397 438 453 324 367 342 338 369 365 175 107 374 385 417 463 532 582 488 508 540 332 0 0 0 0 0
0 0 0 0 0 0 0 0 0 0 0 6 0 0 0 0 0 0 0 0 0 0 0 0 0 0 37 73 193 368 347 301 227 251 161 115 71 42 53 139 61 181 230 230 205 109 250 284 300 275 262 232 191 208 214 220 270 283 275 182 66 293 386 384 382 348 373 350 416 489 501 507 501 499 479 483 472 418 428 459 468 445 186 0 0 0
0 0 0 0 0 0 0 0 0 0 0 0 0 0 0 0 0 0 1 4 0 0 0 0 0 0 18 157 197 319 372 296 273 224 166 112 75 98 127 149 153 183 216 256 293 296 226 249 173 0 152 147 0 0 0 0 0 0 0 0 0 0 0 0 0 87 217 205 0 41 371 111 384 380 434 467 494 538 538 504 473 470 458 436 429 428
0 0 0 0 0 0 0 0 0 0 0 2 0 0 0 0 0 0 1 1 0 0 0 0 0 0 33 189 235 379 352 305 217 236 262 230 196 177 206 198 210 216 242 238 232 255 302 281 263 277 206 70 0 0 0 0 0 0 0 0 0 0 0 0 0 153 225 221 132 0 0 442 500 501 530 484 427 466 470 487 484 466 422 414 416 389
0 0 0 0 0 0 0 0 0 0 0 0 2 0 0 0 0 0 0 0 2 0 0 0 0 0 74 158 246 351 318 238 217 286 246 270 270 269 239 216 223 234 216 205 206 237 286 298 274 179 0 0 0 0 0 105 0 0 0 0 0 0 0 0 0 0 94 102 0 0 0 0 0 274 229 355 174 127 125 112 349 368 362 217 210 0
0 0 0 0 0 0 0 0 0 0 2 26 14 0 0 0 0 0 0 0 0 0 1 0 0 0 15 130 308 318 259 185 219 211 244 238 244 240 219 198 170 174 162 117 93 199 249 246 166 42 0 0 0 1 5 46 103 116 34 82 0 0 0 0 0 0 0 0 0 98 48 0 0 1 1 1 3 326 307 81 1 0 1 1 0 0
0 20 0 0 0 0 0 0 0 0 0 90 0 0 0 0 0 0 0 0 0 2 0 0 0 0 56 132 318 308 241 272 258 218 119 98 228 242 193 122 100 106 104 83 45 111 178 157 88 35 8 3 2 1 0 4 6 17 58 138 166 185 207 206 220 168 72 26 5 82 28 28 28 24 24 20 0 0 0 1 1 1 0 2 16 16
0 0 0 0 0 0 0 0 0 0 0 0 254 0 17 0 0 0 0 0 0 0 0 0 0 0 0 133 252 283 331 319 256 171 190 182 128 40 0 0 0 11 4 1 1 2 4 2 2 0 0 0 0 0 0 0 0 0 6 18 51 105 160 158 139 110 81 0 0 8 6 3 0 11 14 7 2 1 1 1 1 1 2 1 2 3
0 0 0 0 36 0 0 0 0 0 0 0 0 12 367 192 181 0 0 0 0 0 0 1 2 0 0 90 268 337 393 293 251 145 157 84 0 0 0 0 0 0 0 0 0 0 0 0 0 0 0 0 0 0 0 0 0 0 0 0 0 17 26 24 5 2 0 0 0 0 0 0 0 0 1 1 1 1 1 0 0 2 4 5 3 2
0 0 0 0 0 0 0 0 2 0 0 0 0 233 354 402 0 0 0 0 0 0 0 0 0 36 48 56 306 358 306 222 181 147 86 36 7 0 0 0 0 0 0 0 0 0 0 0 0 0 0 0 0 0 0 0 0 0 0 0 0 5 6 2 1 0 0 0 0 0 0 0 0 0 0 0 0 0 0 0 0 0 0 0 0 0
0 0 0 0 0 0 0 82 3 0 0 160 492 327 553 403 94 37 0 0 0 0 0 0 0 324 305 280 304 313 247 193 146 114 78 40 3 0 0 0 0 0 0 0 0 0 0 0 0 0 0 0 1 0 0 0 0 0 0 0 0 0 0 2 4 0 0 0 0 0 0 0 0 0 0 0 0 0 0 0 0 0 0 0 0 0
0 0 0 0 0 8 10 2 0 0 0 100 128 328 427 374 205 0 145 0 0 0 0 0 309 358 337 316 342 332 245 181 144 98 78 33 2 0 0 0 0 0 0 0 0 0 0 0 0 0 0 0 0 0 0 0 0 0 0 0 0 0 0 0 0 0 4 0 0 0 0 0 0 0 0 0 0 0 0 0 0 0 0 0 0 0
0 268 7 26 3 0 0 19 4 0 0 109 58 310 375 410 300 278 3 12 1 0 0 297 337 414 433 396 385 370 259 251 206 136 82 2 0 0 0 0 0 0 0 0 0 0 0 0 0 0 0 0 0 0 0 0 0 0 0 0 0 0 0 0 0 0 0 0 0 0 0 0 0 0 0 0 0 0 0 0 0 0 0 0 0 0
99 0 2 0 33 11 19 10 28 11 0 0 244 176 346 300 295 234 47 74 17 0 201 276 357 436 448 428 392 370 274 221 190 95 17 0 0 0 0 0 0 0 0 0 0 0 0 0 0 0 0 0 0 0 0 0 0 0 0 0 0 0 0 0 0 0 0 0 2 3 0 0 0 0 0 0 0 0 0 0 0 0 0 0 0 0
0 0 0 0 0 0 1 1 15 10 6 1 0 250 311 316 261 109 15 22 0 12 3 0 154 405 465 438 169 374 222 26 112 37 0 0 0 0 0 0 0 0 0 0 0 0 0 0 0 0 0 0 0 0 0 0 0 0 0 0 0 0 0 0 0 0 0 0 0 10 12 6 0 0 0 0 0 0 0 0 0 0 0 0 0 0
0 0 0 1 0 0 0 0 0 0 0 82 232 239 263 302 260 148 19 12 0 29 47 27 330 377 427 428 384 384 251 2 12 1 0 0 0 0 0 0 0 0 0 0 0 0 0 0 0 0 0 0 0 0 0 0 0 0 0 0 0 0 0 0 0 0 0 0 0 0 0 17 8 0 0 0 0 0 0 0 0 0 0 0 0 0
0 0 0 0 0 0 0 0 1 0 0 2 11 220 269 0 43 191 1 0 0 3 15 10 12 332 324 321 287 284 213 0 0 4 1 0 0 0 0 0 0 0 0 0 0 0 0 0 0 0 0 0 0 0 0 0 0 0 0 0 0 0 0 0 0 0 0 0 0 0 0 0 13 15 9 0 0 0 0 0 0 0 0 0 0 0
0 0 2 0 0 0 0 0 0 10 15 0 260 182 155 16 12 7 2 0 0 0 0 185 0 0 0 0 261 236 46 27 8 7 5 0 0 0 0 0 0 0 0 0 0 0 0 0 0 0 0 0 0 0 0 0 0 0 0 0 0 0 0 0 0 0 0 0 0 0 0 0 0 0 0 0 0 0 0 0 0 0 0 0 0 0
152 0 0 0 0 0 0 1 6 70 0 40 18 132 0 26 24 26 0 0 0 0 0 0 51 42 49 42 15 37 21 0 0 0 0 0 0 0 0 0 0 0 0 0 0 0 0 0 0 0 0 0 0 0 0 0 0 0 0 0 0 0 0 0 0 0 0 0 0 0 0 0 0 0 0 0 0 0 0 0 0 0 0 0 0 0
68 26 32 54 11 0 18 6 13 96 83 42 20 4 0 60 17 48 8 2 0 0 0 5 17 36 53 27 27 42 96 61 45 0 4 1 0 0 0 0 0 0 0 0 0 0 0 0 0 0 0 0 0 0 0 0 0 0 0 0 0 0 0 0 0 0 0 0 0 0 0 0 0 0 0 0 0 0 0 0 0 0 0 0 0 0
1 2 8 9 72 91 56 2 1 15 70 106 26 16 56 0 26 110 11 81 7 49 0 38 46 35 71 35 50 28 11 2 3 0 0 0 0 0 0 0 0 0 0 0 0 0 0 0 0 0 0 0 0 0 0 0 0 0 0 0 0 0 0 0 0 0 0 0 0 0 0 0 0 0 0 0 0 0 0 0 0 0 0 0 0 0
2 1 6 64 31 27 76 1 2 25 58 64 105 58 50 82 98 18 118 99 16 1 8 0 4 1 14 11 0 0 4 1 0 0 0 0 0 0 0 0 0 0 0 0 0 0 0 0 0 0 0 0 0 0 0 0 0 0 0 0 0 0 0 0 0 0 0 0 0 0 0 0 0 0 0 0 0 0 0 0 0 0 0 0 0 0
19 3 2 14 42 24 16 1 4 5 18 60 33 4 7 22 7 4 8 3 1 0 1 9 3 4 3 0 0 0 0 0 0 0 0 0 0 0 0 0 0 0 0 0 0 0 0 0 0 0 0 0 0 0 0 0 0 0 0 0 0 0 0 0 0 0 0 0 0 0 0 0 0 0 0 0 0 0 0 0 0 0 0 0 0 0
3 2 9 1 19 3 6 6 8 7 5 1 13 2 4 7 3 1 0 0 0 0 0 5 0 0 0 0 0 0 0 0 0 0 0 0 0 0 0 0 0 0 0 0 0 0 0 0 0 0 0 0 0 0 0 0 0 0 0 0 0 0 0 0 0 0 0 0 0 0 0 0 0 0 0 0 0 0 0 0 0 0 0 0 0 0
0 25 8 8 4 5 10 6 2 13 11 7 5 7 6 10 14 5 3 0 2 0 0 0 0 0 0 0 0 0 0 0 0 0 0 0 0 0 0 0 0 0 0 0 0 0 0 0 0 0 0 0 0 0 0 0 0 0 0 0 0 0 0 0 0 0 0 0 0 0 0 0 0 0 0 0 0 0 0 0 0 0 0 0 0 0
1 25 20 58 90 20 6 5 0 0 6 1 2 16 8 6 22 18 2 3 2 0 0 0 0 0 0 0 0 0 0 0 0 0 0 0 0 0 0 0 0 0 0 0 0 0 0 0 0 0 0 0 0 0 0 0 0 0 0 0 0 0 0 0 0 0 0 0 0 0 0 0 0 0 0 0 0 0 0 0 0 0 0 0 0 0
Wind_Speed
nan nan nan nan nan nan nan nan nan nan nan nan nan nan 13 14 19 22 21 19 8 8 7 10 14 15 14 12 14 18 23 24 23 21 13 7 nan 11 10 12 16 19 26 28 23 22 30 36 36 34 32 33 34 31 28 25 21 20 nan 17 16 15 17 nan nan nan nan nan nan nan nan nan nan nan nan nan nan nan nan nan nan nan nan nan nan nan
nan nan nan nan nan nan nan nan nan nan nan nan nan nan nan nan nan 17 18 15 11 9 11 14 15 14 12 12 12 13 21 20 19 16 8 2 4 6 6 7 10 12 14 15 16 17 23 27 30 29 27 26 27 24 23 20 18 18 nan 16 16 15 14 nan nan nan nan nan nan nan nan nan nan nan nan nan nan nan nan nan nan nan nan nan nan nan
nan nan nan nan nan nan nan nan nan nan nan nan nan nan nan nan 8 15 17 17 15 12 14 17 16 13 12 11 12 11 14 18 20 16 11 7 3 2 1 3 6 7 8 9 11 15 19 25 24 23 23 22 20 18 18 18 17 18 17 16 14 12 11 11 nan nan nan nan nan nan nan nan nan nan nan nan nan nan nan nan nan nan nan nan nan nan
nan nan nan nan nan nan nan nan nan nan nan nan nan nan nan nan nan nan nan 18 19 14 9 nan nan 13 13 12 11 nan 12 10 10 11 11 7 7 nan 4 nan 4 5 6 7 9 10 15 19 20 22 21 19 17 14 15 15 15 16 16 13 12 11 10 11 nan nan nan nan nan nan nan nan nan nan nan nan nan nan nan nan nan nan nan nan nan nan
nan nan nan nan nan nan nan nan nan nan nan nan nan nan nan nan nan nan 7 10 14 15 nan nan nan 11 12 9 9 12 12 nan nan 8 8 7 5 nan nan nan 6 10 6 6 9 10 11 15 17 18 18 17 16 13 12 13 12 13 12 10 11 11 10 11 nan nan nan nan nan nan nan nan nan nan nan nan nan nan nan nan nan nan nan nan nan nan
nan nan nan nan nan nan nan nan nan nan nan nan nan nan nan nan nan nan 5 5 nan nan nan nan nan nan 13 8 7 11 9 7 11 8 6 4 2 nan nan 2 4 11 11 9 6 7 9 13 14 15 14 15 14 11 10 9 10 12 12 12 12 12 12 12 12 14 nan nan nan nan nan nan nan nan nan nan nan nan nan nan nan nan nan nan nan nan
nan nan nan nan nan nan nan nan nan nan nan nan nan nan nan nan nan nan 3 nan nan nan nan nan nan nan nan 9 10 11 10 6 nan nan 8 6 0 nan 7 4 5 9 9 8 9 11 10 9 8 8 10 12 11 9 9 11 14 15 15 16 15 13 12 13 14 15 nan nan nan nan nan nan nan nan nan nan nan nan nan nan nan nan nan nan nan nan
nan nan nan nan nan nan nan nan nan nan nan nan nan nan nan nan nan nan nan nan nan nan nan nan nan nan nan nan 9 10 12 9 nan nan 10 7 7 4 4 5 5 6 8 7 7 8 8 7 5 4 6 7 6 8 12 14 15 16 18 18 16 14 14 14 15 nan nan nan nan nan nan nan nan nan nan nan nan nan nan nan nan nan nan nan nan nan
nan nan nan nan nan nan nan nan nan nan nan nan nan nan nan nan nan nan nan nan nan nan nan nan nan nan nan nan nan nan nan nan nan nan 8 10 nan nan 10 9 9 10 7 5 5 4 4 5 6 6 4 5 8 9 11 11 13 15 16 15 16 19 14 13 15 16 nan nan nan nan nan nan nan nan nan nan nan nan nan nan nan nan nan nan nan nan
nan nan nan nan nan nan nan nan nan nan nan nan nan nan nan nan nan nan nan nan nan nan nan nan nan nan nan nan nan nan nan nan nan nan nan 10 11 nan nan 12 11 10 9 8 7 6 6 5 4 4 6 5 8 11 12 11 13 15 14 13 15 16 14 13 14 16 nan nan nan nan nan nan nan nan nan nan nan nan nan nan nan nan nan nan nan nan
nan 14 nan nan nan nan nan nan nan nan nan nan nan nan nan nan nan nan nan nan nan nan nan 14 nan nan nan nan nan 8 nan nan nan nan 14 nan nan nan 14 12 10 9 10 nan nan 8 7 5 5 5 3 7 11 10 10 11 12 12 13 13 13 12 14 14 14 13 14 13 13 nan nan nan nan nan nan nan nan nan nan nan nan nan nan nan nan nan
nan nan nan nan nan nan nan nan nan nan nan nan nan nan nan nan nan nan nan nan nan nan nan nan nan nan nan nan nan nan nan nan nan nan nan 18 nan nan nan nan 11 9 nan nan nan 3 3 3 6 8 8 9 10 11 10 10 11 12 12 13 12 11 13 15 13 12 9 11 12 12 nan nan nan nan nan nan nan nan nan nan nan nan nan nan nan nan
nan nan nan nan 14 nan nan nan nan nan nan nan nan nan nan nan nan nan nan nan nan nan nan nan nan nan nan nan nan nan nan nan nan nan nan nan nan nan nan nan nan nan nan nan nan 1 3 5 5 6 8 9 9 8 9 9 11 11 10 11 11 8 12 15 11 10 8 7 11 12 nan nan nan nan nan nan nan nan nan nan nan nan nan nan nan nan
nan nan nan nan nan nan nan nan nan nan nan nan nan nan nan nan nan nan nan nan nan nan nan nan nan nan nan nan 14 19 19 19 21 23 22 19 nan nan nan nan nan nan nan nan nan 3 2 3 4 7 7 7 11 11 10 8 7 8 8 10 9 9 14 15 10 9 7 5 10 12 nan nan nan nan nan nan nan nan nan nan nan nan nan nan nan nan
nan nan nan nan nan nan nan nan nan nan nan nan nan nan nan nan nan nan nan nan nan nan nan nan nan nan nan nan 20 21 19 17 18 20 nan nan nan nan nan nan nan nan nan 9 6 nan 2 4 nan 7 9 12 12 8 5 4 5 6 7 9 9 8 10 12 10 9 6 8 10 nan nan nan nan nan nan nan nan nan nan nan nan nan nan nan nan nan
nan nan nan nan nan nan nan nan nan nan nan nan nan nan nan nan nan nan nan nan nan nan nan nan nan nan nan 18 20 18 16 16 20 20 18 nan 15 nan nan nan nan 11 nan 10 6 4 3 5 8 10 10 10 10 5 3 2 6 7 8 9 9 8 9 11 11 9 6 6 nan nan nan nan nan nan nan nan nan nan nan nan nan nan nan nan nan nan
nan nan nan nan nan nan nan nan nan nan nan nan nan nan nan nan nan nan nan nan nan nan nan nan nan nan nan 18 19 19 17 18 18 18 16 15 15 13 11 9 9 10 10 9 7 4 6 8 10 9 8 9 9 5 4 7 8 8 7 8 9 8 8 9 8 7 8 10 nan nan nan nan nan nan nan nan nan nan nan nan nan nan nan nan nan nan
nan nan nan nan nan nan nan nan nan nan nan nan nan nan nan nan nan nan nan nan nan nan nan nan nan nan nan nan nan 19 18 19 18 17 15 13 13 13 11 10 11 11 10 9 7 7 8 10 11 9 9 10 8 3 2 6 8 7 6 7 8 8 6 6 7 8 9 9 8 8 nan nan nan nan nan nan nan nan nan nan nan nan nan nan nan nan
nan nan nan nan nan nan nan nan nan nan nan nan nan nan nan nan nan nan nan nan nan nan nan nan nan nan nan nan nan nan 19 19 18 17 16 15 14 14 13 13 13 12 10 10 10 nan 8 nan 10 7 7 8 7 3 7 9 10 nan 7 7 5 3 5 7 7 7 8 7 8 9 nan nan nan nan 11 12 nan nan nan nan nan nan nan nan nan nan
nan nan nan nan nan nan nan nan nan nan nan nan nan nan nan nan nan nan nan nan nan nan nan nan nan nan nan nan nan nan nan 17 17 17 18 17 15 12 12 14 16 15 13 13 13 11 11 10 7 5 7 8 6 5 7 8 8 4 2 2 1 3 4 6 7 7 8 8 9 10 12 11 11 11 12 13 nan nan nan nan 17 nan nan nan nan nan
nan nan nan nan nan nan nan nan nan nan nan nan nan nan nan nan nan nan nan nan nan nan nan nan nan nan nan nan nan nan nan 14 nan 13 14 14 14 13 13 nan 15 15 nan 12 12 12 12 11 9 8 nan 6 7 6 6 6 4 3 3 3 3 3 3 3 5 6 6 6 8 11 11 11 12 12 15 15 15 15 16 19 19 15 16 nan nan nan
nan nan nan nan nan nan nan nan nan nan nan nan nan nan nan nan nan nan nan nan nan nan nan nan nan nan nan nan nan nan 16 11 10 9 11 13 14 12 nan nan nan 12 11 11 12 12 12 10 10 11 10 8 6 6 7 8 7 4 4 3 3 4 4 3 3 5 6 6 9 12 12 12 13 14 16 17 17 19 19 20 19 15 15 17 15 nan
nan nan nan nan nan nan nan nan nan nan nan nan nan nan nan nan nan nan nan nan nan nan nan nan nan nan nan nan nan nan 14 10 9 10 11 13 12 nan nan 11 11 11 10 11 12 12 12 11 9 10 11 10 9 8 7 6 4 5 3 2 4 5 6 6 7 7 7 8 10 12 13 13 13 17 17 17 18 17 19 18 19 16 18 19 18 21
6 nan nan nan nan nan nan nan nan nan nan nan nan nan nan nan nan nan nan nan nan nan nan nan nan nan nan nan nan 14 14 10 11 10 10 11 11 11 12 12 12 12 12 11 11 11 11 11 10 9 8 9 9 9 9 8 7 7 6 5 6 7 7 8 9 11 10 11 11 12 13 12 13 15 16 18 19 18 18 18 17 17 17 17 19 20
nan nan nan nan nan nan nan nan nan nan nan nan nan nan nan nan nan nan nan nan nan nan nan nan nan nan nan nan nan 14 11 10 11 11 12 12 13 13 14 14 13 13 12 12 11 11 10 10 9 9 8 7 8 9 8 9 8 8 8 7 7 7 8 9 11 12 12 13 13 12 12 11 12 12 13 15 17 18 18 19 20 20 19 19 20 21
nan nan nan nan nan nan nan nan nan nan nan nan nan nan nan nan nan nan nan nan nan nan nan nan nan nan nan nan nan 10 7 10 10 11 12 13 13 nan nan nan nan nan nan nan 10 9 9 8 8 10 10 10 10 9 9 9 10 11 11 10 9 9 10 12 13 13 14 14 13 12 12 13 15 15 15 15 16 17 18 20 21 nan nan nan nan nan
nan nan nan nan nan nan nan nan nan nan nan nan nan nan nan nan nan nan nan nan nan nan nan nan nan nan nan nan 7 8 7 6 8 9 9 10 nan nan nan 10 nan 9 10 10 9 8 8 10 12 11 12 12 11 11 12 12 12 12 12 13 nan 13 14 14 14 15 15 14 14 13 13 14 15 17 18 18 19 20 21 22 22 23 23 nan nan nan
nan nan nan nan nan nan nan nan nan nan nan nan nan nan nan nan nan nan nan nan nan nan nan nan nan nan nan 2 3 4 5 7 8 8 8 8 nan nan 8 8 10 11 11 11 12 12 11 10 13 nan 13 14 nan nan nan nan nan nan nan nan nan nan nan nan nan nan 18 18 nan nan 18 18 19 20 21 22 24 24 25 25 25 26 26 27 28 29
nan nan nan nan nan nan nan nan nan nan nan nan nan nan nan nan nan nan nan nan nan nan nan nan nan nan nan 5 4 4 6 8 8 8 9 8 8 9 10 12 12 12 13 14 13 13 14 15 15 15 16 nan nan nan nan nan nan nan nan nan nan nan nan nan nan 21 22 22 23 nan nan 25 25 25 27 27 27 27 28 29 29 29 30 31 31 31
nan nan nan nan nan nan nan nan nan nan nan nan nan nan nan nan nan nan nan nan nan nan nan nan nan nan nan 7 7 7 8 10 9 9 8 10 10 10 11 11 12 13 14 14 14 15 14 15 16 16 nan nan nan nan nan 17 nan nan nan nan nan nan nan nan nan nan nan 25 nan nan nan nan nan 28 28 29 30 30 31 31 31 32 32 32 33 nan
nan nan nan nan nan nan nan nan nan nan nan nan nan nan nan nan nan nan nan nan nan nan nan nan nan nan nan 7 9 9 11 11 10 10 10 9 10 11 11 11 13 14 14 16 nan 17 17 18 18 nan nan nan nan nan nan nan 19 20 nan nan nan nan nan nan nan nan nan nan nan nan nan nan nan nan nan nan nan 29 30 nan nan nan nan nan nan nan
nan nan nan nan nan nan nan nan nan nan nan nan nan nan nan nan nan nan nan nan nan nan nan nan nan nan nan 9 11 12 12 12 12 12 11 nan 10 12 13 14 nan 15 16 nan nan 18 20 20 nan nan nan nan nan nan nan nan nan nan nan 21 22 22 23 25 25 26 nan nan nan nan nan nan nan nan nan nan nan nan nan nan nan nan nan nan nan nan
nan nan nan nan nan nan nan nan nan nan nan nan 10 nan nan nan nan nan nan nan nan nan nan nan nan nan nan 11 13 12 12 14 14 12 12 12 11 nan nan nan nan nan nan nan nan nan nan nan nan nan nan nan nan nan nan nan nan nan nan nan nan 24 26 26 26 27 nan nan nan nan nan nan nan nan nan nan nan nan nan nan nan nan nan nan nan nan
nan nan nan nan nan nan nan nan nan nan nan nan nan nan 9 11 11 nan nan nan nan nan nan nan nan nan nan nan 13 14 15 14 13 12 12 nan nan nan nan nan nan nan nan nan nan nan nan nan nan nan nan nan nan nan nan nan nan nan nan nan nan nan nan nan nan nan nan nan nan nan nan nan nan nan nan nan nan nan nan nan nan nan nan nan nan nan
nan nan nan nan nan nan nan nan nan nan nan nan nan 10 8 9 nan nan nan nan nan nan nan nan nan nan nan nan 14 16 18 18 17 17 nan nan nan nan nan nan nan nan nan nan nan nan nan nan nan nan nan nan nan nan nan nan nan nan nan nan nan nan nan nan nan nan nan nan nan nan nan nan nan nan nan nan nan nan nan nan nan nan nan nan nan nan
nan nan nan nan nan nan nan nan nan nan nan 12 12 12 12 11 nan nan nan nan nan nan nan nan nan 13 15 18 18 20 22 22 23 21 nan nan nan nan nan nan nan nan nan nan nan nan nan nan nan nan nan nan nan nan nan nan nan nan nan nan nan nan nan nan nan nan nan nan nan nan nan nan nan nan nan nan nan nan nan nan nan nan nan nan nan nan
nan nan nan nan nan nan nan nan nan nan nan 16 16 15 15 13 13 nan 11 nan nan nan nan nan 13 16 19 20 22 23 24 24 24 nan nan nan nan nan nan nan nan nan nan nan nan nan nan nan nan nan nan nan nan nan nan nan nan nan nan nan nan nan nan nan nan nan nan nan nan nan nan nan nan nan nan nan nan nan nan nan nan nan nan nan nan nan
nan 16 nan nan nan nan nan nan nan nan nan 16 nan 16 16 14 14 13 nan nan nan nan nan 16 16 18 21 22 24 24 26 28 24 21 nan nan nan nan nan nan nan nan nan nan nan nan nan nan nan nan nan nan nan nan nan nan nan nan nan nan nan nan nan nan nan nan nan nan nan nan nan nan nan nan nan nan nan nan nan nan nan nan nan nan nan nan
nan nan nan nan nan nan nan nan nan nan nan nan 18 17 16 16 15 16 nan nan nan nan 14 16 20 19 23 24 24 25 26 25 23 nan nan nan nan nan nan nan nan nan nan nan nan nan nan nan nan nan nan nan nan nan nan nan nan nan nan nan nan nan nan nan nan nan nan nan nan nan nan nan nan nan nan nan nan nan nan nan nan nan nan nan nan nan
nan nan nan nan nan nan nan nan nan nan nan nan nan 18 19 21 19 18 nan nan nan nan nan nan 21 22 22 24 25 26 25 nan 26 nan nan nan nan nan nan nan nan nan nan nan nan nan nan nan nan nan nan nan nan nan nan nan nan nan nan nan nan nan nan nan nan nan nan nan nan nan nan nan nan nan nan nan nan nan nan nan nan nan nan nan nan nan
nan nan nan nan nan nan nan nan nan nan nan nan 18 19 21 21 22 19 nan nan nan nan nan nan 23 24 25 27 24 27 24 nan nan nan nan nan nan nan nan nan nan nan nan nan nan nan nan nan nan nan nan nan nan nan nan nan nan nan nan nan nan nan nan nan nan nan nan nan nan nan nan nan nan nan nan nan nan nan nan nan nan nan nan nan nan nan
nan nan nan nan nan nan nan nan nan nan nan nan nan 15 16 nan nan 17 nan nan nan nan nan nan nan 23 25 27 29 30 31 nan nan nan nan nan nan nan nan nan nan nan nan nan nan nan nan nan nan nan nan nan nan nan nan nan nan nan nan nan nan nan nan nan nan nan nan nan nan nan nan nan nan nan nan nan nan nan nan nan nan nan nan nan nan nan
nan nan nan nan nan nan nan nan nan nan nan nan 21 18 19 nan nan nan nan nan nan nan nan 25 nan nan nan nan 35 36 nan nan nan nan nan nan nan nan nan nan nan nan nan nan nan nan nan nan nan nan nan nan nan nan nan nan nan nan nan nan nan nan nan nan nan nan nan nan nan nan nan nan nan nan nan nan nan nan nan nan nan nan nan nan nan nan
14 nan nan nan nan nan nan nan nan nan nan nan nan 17 nan nan nan nan nan nan nan nan nan nan nan nan nan nan nan nan nan nan nan nan nan nan nan nan nan nan nan nan nan nan nan nan nan nan nan nan nan nan nan nan nan nan nan nan nan nan nan nan nan nan nan nan nan nan nan nan nan nan nan nan nan nan nan nan nan nan nan nan nan nan nan nan
nan nan nan nan nan nan nan nan nan nan nan nan nan nan nan nan nan nan nan nan nan nan nan nan nan nan nan nan nan nan nan nan nan nan nan nan nan nan nan nan nan nan nan nan nan nan nan nan nan nan nan nan nan nan nan nan nan nan nan nan nan nan nan nan nan nan nan nan nan nan nan nan nan nan nan nan nan nan nan nan nan nan nan nan nan nan
nan nan nan nan nan nan nan nan nan nan nan 17 nan nan nan nan nan 22 nan nan nan nan nan nan nan nan nan nan nan nan nan nan nan nan nan nan nan nan nan nan nan nan nan nan nan nan nan nan nan nan nan nan nan nan nan nan nan nan nan nan nan nan nan nan nan nan nan nan nan nan nan nan nan nan nan nan nan nan nan nan nan nan nan nan nan nan
nan nan nan nan nan nan nan nan nan nan nan nan 17 nan nan nan nan nan 27 nan nan nan nan nan nan nan nan nan nan nan nan nan nan nan nan nan nan nan nan nan nan nan nan nan nan nan nan nan nan nan nan nan nan nan nan nan nan nan nan nan nan nan nan nan nan nan nan nan nan nan nan nan nan nan nan nan nan nan nan nan nan nan nan nan nan nan
nan nan nan nan nan nan nan nan nan nan nan nan nan nan nan nan nan nan nan nan nan nan nan nan nan nan nan nan nan nan nan nan nan nan nan nan nan nan nan nan nan nan nan nan nan nan nan nan nan nan nan nan nan nan nan nan nan nan nan nan nan nan nan nan nan nan nan nan nan nan nan nan nan nan nan nan nan nan nan nan nan nan nan nan nan nan
nan nan nan nan nan nan nan nan nan nan nan nan nan nan nan nan nan nan nan nan nan nan nan nan nan nan nan nan nan nan nan nan nan nan nan nan nan nan nan nan nan nan nan nan nan nan nan nan nan nan nan nan nan nan nan nan nan nan nan nan nan nan nan nan nan nan nan nan nan nan nan nan nan nan nan nan nan nan nan nan nan nan nan nan nan nan
nan nan nan nan nan nan nan nan nan nan nan nan nan nan nan nan nan nan nan nan nan nan nan nan nan nan nan nan nan nan nan nan nan nan nan nan nan nan nan nan nan nan nan nan nan nan nan nan nan nan nan nan nan nan nan nan nan nan nan nan nan nan nan nan nan nan nan nan nan nan nan nan nan nan nan nan nan nan nan nan nan nan nan nan nan nan
nan nan nan nan nan nan nan nan nan nan nan nan nan nan nan nan nan nan nan nan nan nan nan nan nan nan nan nan nan nan nan nan nan nan nan nan nan nan nan nan nan nan nan nan nan nan nan nan nan nan nan nan nan nan nan nan nan nan nan nan nan nan nan nan nan nan nan nan nan nan nan nan nan nan nan nan nan nan nan nan nan nan nan nan nan nan
Wind_Direction
nan nan nan nan nan nan nan nan nan nan nan nan nan nan 69 69 80 81 83 89 130 162 166 147 152 153 144 156 185 203 199 211 212 210 197 172 nan 129 112 127 146 161 169 187 211 221 212 205 210 215 219 224 230 239 241 236 237 241 nan 256 264 265 266 nan nan nan nan nan nan nan nan nan nan nan nan nan nan nan nan nan nan nan nan nan nan nan
nan nan nan nan nan nan nan nan nan nan nan nan nan nan nan nan nan 94 97 103 115 130 138 163 171 162 138 135 147 194 209 217 227 240 233 7 88 126 86 111 127 149 166 190 196 211 220 213 217 216 222 231 236 234 236 230 236 243 nan 255 261 264 270 nan nan nan nan nan nan nan nan nan nan nan nan nan nan nan nan nan nan nan nan nan nan nan
nan nan nan nan nan nan nan nan nan nan nan nan nan nan nan nan 62 99 110 118 121 139 135 168 178 148 145 137 128 170 206 220 228 234 228 265 318 68 123 118 140 136 181 196 199 196 210 218 217 213 214 213 217 224 227 226 234 243 249 252 263 274 275 273 nan nan nan nan nan nan nan nan nan nan nan nan nan nan nan nan nan nan nan nan nan nan
nan nan nan nan nan nan nan nan nan nan nan nan nan nan nan nan nan nan nan 125 139 147 133 nan nan 146 142 136 129 nan 177 194 235 224 232 261 291 nan 262 nan 105 154 196 208 215 212 206 211 210 208 207 206 207 209 213 218 230 236 244 258 275 281 276 278 nan nan nan nan nan nan nan nan nan nan nan nan nan nan nan nan nan nan nan nan nan nan
nan nan nan nan nan nan nan nan nan nan nan nan nan nan nan nan nan nan 61 97 125 155 nan nan nan 153 157 154 153 157 180 nan nan 187 207 206 258 nan nan nan 182 172 177 215 212 194 190 197 201 199 198 198 198 201 208 216 225 230 250 265 281 282 286 285 nan nan nan nan nan nan nan nan nan nan nan nan nan nan nan nan nan nan nan nan nan nan
nan nan nan nan nan nan nan nan nan nan nan nan nan nan nan nan nan nan 79 78 nan nan nan nan nan nan 153 161 155 150 159 148 138 167 144 109 282 nan nan 196 227 188 172 163 179 175 184 193 197 192 195 194 196 201 205 220 232 238 244 253 258 264 275 284 283 282 nan nan nan nan nan nan nan nan nan nan nan nan nan nan nan nan nan nan nan nan
nan nan nan nan nan nan nan nan nan nan nan nan nan nan nan nan nan nan 64 nan nan nan nan nan nan nan nan 161 155 157 152 142 nan nan 93 96 147 nan 157 159 215 190 153 147 179 185 192 192 191 187 195 199 206 201 208 222 226 234 243 250 256 267 272 276 278 282 nan nan nan nan nan nan nan nan nan nan nan nan nan nan nan nan nan nan nan nan
nan nan nan nan nan nan nan nan nan nan nan nan nan nan nan nan nan nan nan nan nan nan nan nan nan nan nan nan 152 152 143 141 nan nan 97 120 141 163 169 197 189 160 159 168 179 180 163 157 162 183 205 213 215 223 236 239 234 238 242 247 254 257 267 268 275 nan nan nan nan nan nan nan nan nan nan nan nan nan nan nan nan nan nan nan nan nan
nan nan nan nan nan nan nan nan nan nan nan nan nan nan nan nan nan nan nan nan nan nan nan nan nan nan nan nan nan nan nan nan nan nan 113 123 nan nan 159 161 149 145 143 137 132 129 142 153 161 185 204 204 220 233 245 243 233 231 234 242 245 241 240 269 274 278 nan nan nan nan nan nan nan nan nan nan nan nan nan nan nan nan nan nan nan nan
nan nan nan nan nan nan nan nan nan nan nan nan nan nan nan nan nan nan nan nan nan nan nan nan nan nan nan nan nan nan nan nan nan nan nan 128 140 nan nan 140 146 151 146 138 145 163 180 180 176 179 190 204 215 221 228 231 229 226 230 241 247 253 256 254 268 278 nan nan nan nan nan nan nan nan nan nan nan nan nan nan nan nan nan nan nan nan
nan 38 nan nan nan nan nan nan nan nan nan nan nan nan nan nan nan nan nan nan nan nan nan 150 nan nan nan nan nan 142 nan nan nan nan 138 nan nan nan 136 134 135 154 165 nan nan 182 190 174 166 185 206 209 217 223 229 228 234 240 245 253 268 282 274 269 268 276 294 289 293 nan nan nan nan nan nan nan nan nan nan nan nan nan nan nan nan nan
nan nan nan nan nan nan nan nan nan nan nan nan nan nan nan nan nan nan nan nan nan nan nan nan nan nan nan nan nan nan nan nan nan nan nan 144 nan nan nan nan 144 158 nan nan nan 188 195 192 188 199 215 222 224 234 236 226 236 246 249 258 266 264 264 261 264 273 276 289 291 286 nan nan nan nan nan nan nan nan nan nan nan nan nan nan nan nan
nan nan nan nan 49 nan nan nan nan nan nan nan nan nan nan nan nan nan nan nan nan nan nan nan nan nan nan nan nan nan nan nan nan nan nan nan nan nan nan nan nan nan nan nan nan 169 187 206 235 240 229 230 246 250 252 240 239 254 260 272 271 265 262 260 258 259 246 275 295 291 nan nan nan nan nan nan nan nan nan nan nan nan nan nan nan nan
nan nan nan nan nan nan nan nan nan nan nan nan nan nan nan nan nan nan nan nan nan nan nan nan nan nan nan nan 122 128 130 129 135 137 137 136 nan nan nan nan nan nan nan nan nan 200 203 225 233 236 245 250 245 247 251 247 250 245 243 251 255 254 267 271 277 280 287 295 293 293 nan nan nan nan nan nan nan nan nan nan nan nan nan nan nan nan
nan nan nan nan nan nan nan nan nan nan nan nan nan nan nan nan nan nan nan nan nan nan nan nan nan nan nan nan 128 123 123 140 150 155 nan nan nan nan nan nan nan nan nan 184 186 nan 196 216 nan 230 230 230 239 258 270 260 247 237 239 241 249 267 273 265 266 279 302 306 305 nan nan nan nan nan nan nan nan nan nan nan nan nan nan nan nan nan
nan nan nan nan nan nan nan nan nan nan nan nan nan nan nan nan nan nan nan nan nan nan nan nan nan nan nan 136 136 135 138 147 163 173 175 nan 176 nan nan nan nan 190 nan 182 194 205 240 245 232 229 222 219 227 232 199 212 228 236 242 246 244 249 262 273 276 275 265 288 nan nan nan nan nan nan nan nan nan nan nan nan nan nan nan nan nan nan
nan nan nan nan nan nan nan nan nan nan nan nan nan nan nan nan nan nan nan nan nan nan nan nan nan nan nan 136 152 150 157 161 167 176 178 180 186 191 203 209 204 199 194 192 204 217 230 237 233 229 225 221 229 214 176 196 209 232 249 248 252 263 265 288 295 297 295 307 nan nan nan nan nan nan nan nan nan nan nan nan nan nan nan nan nan nan
nan nan nan nan nan nan nan nan nan nan nan nan nan nan nan nan nan nan nan nan nan nan nan nan nan nan nan nan nan 164 173 175 180 184 190 188 184 198 205 214 217 212 211 213 226 224 219 233 237 231 229 236 240 224 207 234 234 230 222 236 258 271 294 287 285 299 306 308 318 310 nan nan nan nan nan nan nan nan nan nan nan nan nan nan nan nan
nan nan nan nan nan nan nan nan nan nan nan nan nan nan nan nan nan nan nan nan nan nan nan nan nan nan nan nan nan nan 172 178 188 194 195 202 202 206 214 222 223 218 221 228 224 nan 216 nan 232 236 245 247 250 231 201 222 228 nan 217 223 256 312 292 299 306 312 307 313 320 308 nan nan nan nan 316 298 nan nan nan nan nan nan nan nan nan nan
nan nan nan nan nan nan nan nan nan nan nan nan nan nan nan nan nan nan nan nan nan nan nan nan nan nan nan nan nan nan nan 177 189 196 202 200 200 202 216 223 217 209 211 221 224 219 207 211 207 215 227 232 234 215 202 210 220 233 223 253 267 268 280 290 304 313 324 333 313 302 313 321 318 324 310 297 nan nan nan nan 303 nan nan nan nan nan
nan nan nan nan nan nan nan nan nan nan nan nan nan nan nan nan nan nan nan nan nan nan nan nan nan nan nan nan nan nan nan 181 nan 197 196 191 187 194 208 nan 212 209 nan 200 208 210 202 196 185 189 nan 209 203 188 213 216 217 246 257 249 272 290 259 292 312 313 322 322 315 314 326 331 324 331 314 311 318 311 293 298 309 317 317 nan nan nan
nan nan nan nan nan nan nan nan nan nan nan nan nan nan nan nan nan nan nan nan nan nan nan nan nan nan nan nan nan nan 150 172 175 172 169 168 167 171 nan nan nan 195 193 191 191 191 190 195 189 185 192 203 202 194 218 216 211 227 225 220 220 224 263 293 279 282 302 311 296 299 313 326 320 307 306 307 296 293 297 304 309 315 310 310 313 nan
nan nan nan nan nan nan nan nan nan nan nan nan nan nan nan nan nan nan nan nan nan nan nan nan nan nan nan nan nan nan 149 158 164 157 160 159 161 nan nan 173 176 184 185 179 182 181 184 187 193 197 198 194 190 195 223 236 188 185 186 214 247 261 256 274 282 284 285 298 300 308 311 314 311 300 308 307 299 302 301 305 310 311 310 311 308 307
295 nan nan nan nan nan nan nan nan nan nan nan nan nan nan nan nan nan nan nan nan nan nan nan nan nan nan nan nan 134 140 160 157 158 167 166 167 169 175 177 176 181 178 185 181 181 187 193 203 219 209 197 194 197 207 221 224 207 205 212 233 252 270 276 282 287 292 290 291 297 303 305 302 303 307 303 303 308 307 308 310 310 311 308 303 302
nan nan nan nan nan nan nan nan nan nan nan nan nan nan nan nan nan nan nan nan nan nan nan nan nan nan nan nan nan 140 146 172 169 177 177 180 177 174 177 175 174 180 186 189 192 193 198 206 210 220 226 225 213 207 212 229 238 237 239 242 253 262 273 274 278 282 284 289 292 293 295 298 294 294 294 297 298 302 302 303 304 304 303 298 296 297
nan nan nan nan nan nan nan nan nan nan nan nan nan nan nan nan nan nan nan nan nan nan nan nan nan nan nan nan nan 143 168 175 179 192 189 184 188 nan nan nan nan nan nan nan 199 203 210 209 214 225 231 229 221 220 225 229 236 244 250 250 259 268 268 269 274 282 286 286 287 289 293 293 293 295 294 292 292 294 298 300 302 nan nan nan nan nan
nan nan nan nan nan nan nan nan nan nan nan nan nan nan nan nan nan nan nan nan nan nan nan nan nan nan nan nan 136 143 179 186 199 203 206 212 nan nan nan 187 nan 188 193 197 196 199 206 220 229 234 237 239 239 237 236 238 240 244 247 247 nan 258 263 266 271 272 274 277 281 282 283 286 290 293 296 298 298 295 294 294 291 291 290 nan nan nan
nan nan nan nan nan nan nan nan nan nan nan nan nan nan nan nan nan nan nan nan nan nan nan nan nan nan nan 117 137 174 212 221 218 217 226 222 nan nan 209 212 216 210 208 207 207 210 214 221 243 nan 245 246 nan nan nan nan nan nan nan nan nan nan nan nan nan nan 276 278 nan nan 283 288 291 293 294 294 293 290 287 284 283 284 285 284 284 287
nan nan nan nan nan nan nan nan nan nan nan nan nan nan nan nan nan nan nan nan nan nan nan nan nan nan nan 165 199 202 231 239 237 229 229 233 237 229 229 228 225 223 220 220 216 218 225 232 240 246 248 nan nan nan nan nan nan nan nan nan nan nan nan nan nan 281 282 280 276 nan nan 280 279 279 279 280 280 280 279 279 280 281 282 283 285 286
nan nan nan nan nan nan nan nan nan nan nan nan nan nan nan nan nan nan nan nan nan nan nan nan nan nan nan 190 205 232 245 246 238 232 231 233 234 234 235 228 232 234 236 237 236 239 240 244 245 249 nan nan nan nan nan 255 nan nan nan nan nan nan nan nan nan nan nan 275 nan nan nan nan nan 275 274 274 275 277 279 280 282 283 283 283 282 nan
nan nan nan nan nan nan nan nan nan nan nan nan nan nan nan nan nan nan nan nan nan nan nan nan nan nan nan 203 225 227 242 247 248 247 241 240 245 249 248 246 246 247 250 257 nan 260 262 260 260 nan nan nan nan nan nan nan 265 265 nan nan nan nan nan nan nan nan nan nan nan nan nan nan nan nan nan nan nan 278 280 nan nan nan nan nan nan nan
nan nan nan nan nan nan nan nan nan nan nan nan nan nan nan nan nan nan nan nan nan nan nan nan nan nan nan 226 237 246 259 260 254 250 246 nan 243 248 250 249 nan 254 254 nan nan 264 265 266 nan nan nan nan nan nan nan nan nan nan nan 265 264 264 263 264 264 266 nan nan nan nan nan nan nan nan nan nan nan nan nan nan nan nan nan nan nan nan
nan nan nan nan nan nan nan nan nan nan nan nan 215 nan nan nan nan nan nan nan nan nan nan nan nan nan nan 239 248 254 256 255 254 257 255 252 249 nan nan nan nan nan nan nan nan nan nan nan nan nan nan nan nan nan nan nan nan nan nan nan nan 267 264 264 265 266 nan nan nan nan nan nan nan nan nan nan nan nan nan nan nan nan nan nan nan nan
nan nan nan nan nan nan nan nan nan nan nan nan nan nan 209 205 214 nan nan nan nan nan nan nan nan nan nan nan 262 266 262 264 265 247 253 nan nan nan nan nan nan nan nan nan nan nan nan nan nan nan nan nan nan nan nan nan nan nan nan nan nan nan nan nan nan nan nan nan nan nan nan nan nan nan nan nan nan nan nan nan nan nan nan nan nan nan
nan nan nan nan nan nan nan nan nan nan nan nan nan 201 212 196 nan nan nan nan nan nan nan nan nan nan nan nan 257 259 257 250 249 258 nan nan nan nan nan nan nan nan nan nan nan nan nan nan nan nan nan nan nan nan nan nan nan nan nan nan nan nan nan nan nan nan nan nan nan nan nan nan nan nan nan nan nan nan nan nan nan nan nan nan nan nan
nan nan nan nan nan nan nan nan nan nan nan 217 209 212 209 216 nan nan nan nan nan nan nan nan nan 250 250 253 253 257 262 260 253 244 nan nan nan nan nan nan nan nan nan nan nan nan nan nan nan nan nan nan nan nan nan nan nan nan nan nan nan nan nan nan nan nan nan nan nan nan nan nan nan nan nan nan nan nan nan nan nan nan nan nan nan nan
nan nan nan nan nan nan nan nan nan nan nan 228 229 227 224 223 220 nan 226 nan nan nan nan nan 250 252 256 259 263 265 265 260 255 nan nan nan nan nan nan nan nan nan nan nan nan nan nan nan nan nan nan nan nan nan nan nan nan nan nan nan nan nan nan nan nan nan nan nan nan nan nan nan nan nan nan nan nan nan nan nan nan nan nan nan nan nan
nan 260 nan nan nan nan nan nan nan nan nan 223 nan 225 228 226 220 221 nan nan nan nan nan 270 270 267 265 267 271 272 268 264 261 251 nan nan nan nan nan nan nan nan nan nan nan nan nan nan nan nan nan nan nan nan nan nan nan nan nan nan nan nan nan nan nan nan nan nan nan nan nan nan nan nan nan nan nan nan nan nan nan nan nan nan nan nan
nan nan nan nan nan nan nan nan nan nan nan nan 231 230 229 231 228 225 nan nan nan nan 257 264 272 271 277 277 274 271 270 268 264 nan nan nan nan nan nan nan nan nan nan nan nan nan nan nan nan nan nan nan nan nan nan nan nan nan nan nan nan nan nan nan nan nan nan nan nan nan nan nan nan nan nan nan nan nan nan nan nan nan nan nan nan nan
nan nan nan nan nan nan nan nan nan nan nan nan nan 225 227 234 236 235 nan nan nan nan nan nan 267 267 259 260 262 264 269 nan 270 nan nan nan nan nan nan nan nan nan nan nan nan nan nan nan nan nan nan nan nan nan nan nan nan nan nan nan nan nan nan nan nan nan nan nan nan nan nan nan nan nan nan nan nan nan nan nan nan nan nan nan nan nan
nan nan nan nan nan nan nan nan nan nan nan nan 226 222 224 235 239 240 nan nan nan nan nan nan 250 252 260 265 261 260 249 nan nan nan nan nan nan nan nan nan nan nan nan nan nan nan nan nan nan nan nan nan nan nan nan nan nan nan nan nan nan nan nan nan nan nan nan nan nan nan nan nan nan nan nan nan nan nan nan nan nan nan nan nan nan nan
nan nan nan nan nan nan nan nan nan nan nan nan nan 231 235 nan nan 241 nan nan nan nan nan nan nan 263 268 264 259 258 259 nan nan nan nan nan nan nan nan nan nan nan nan nan nan nan nan nan nan nan nan nan nan nan nan nan nan nan nan nan nan nan nan nan nan nan nan nan nan nan nan nan nan nan nan nan nan nan nan nan nan nan nan nan nan nan
nan nan nan nan nan nan nan nan nan nan nan nan 219 231 241 nan nan nan nan nan nan nan nan 238 nan nan nan nan 252 256 nan nan nan nan nan nan nan nan nan nan nan nan nan nan nan nan nan nan nan nan nan nan nan nan nan nan nan nan nan nan nan nan nan nan nan nan nan nan nan nan nan nan nan nan nan nan nan nan nan nan nan nan nan nan nan nan
260 nan nan nan nan nan nan nan nan nan nan nan nan 248 nan nan nan nan nan nan nan nan nan nan nan nan nan nan nan nan nan nan nan nan nan nan nan nan nan nan nan nan nan nan nan nan nan nan nan nan nan nan nan nan nan nan nan nan nan nan nan nan nan nan nan nan nan nan nan nan nan nan nan nan nan nan nan nan nan nan nan nan nan nan nan nan
nan nan nan nan nan nan nan nan nan nan nan nan nan nan nan nan nan nan nan nan nan nan nan nan nan nan nan nan nan nan nan nan nan nan nan nan nan nan nan nan nan nan nan nan nan nan nan nan nan nan nan nan nan nan nan nan nan nan nan nan nan nan nan nan nan nan nan nan nan nan nan nan nan nan nan nan nan nan nan nan nan nan nan nan nan nan
nan nan nan nan nan nan nan nan nan nan nan 238 nan nan nan nan nan 251 nan nan nan nan nan nan nan nan nan nan nan nan nan nan nan nan nan nan nan nan nan nan nan nan nan nan nan nan nan nan nan nan nan nan nan nan nan nan nan nan nan nan nan nan nan nan nan nan nan nan nan nan nan nan nan nan nan nan nan nan nan nan nan nan nan nan nan nan
nan nan nan nan nan nan nan nan nan nan nan nan 233 nan nan nan nan nan 248 nan nan nan nan nan nan nan nan nan nan nan nan nan nan nan nan nan nan nan nan nan nan nan nan nan nan nan nan nan nan nan nan nan nan nan nan nan nan nan nan nan nan nan nan nan nan nan nan nan nan nan nan nan nan nan nan nan nan nan nan nan nan nan nan nan nan nan
nan nan nan nan nan nan nan nan nan nan nan nan nan nan nan nan nan nan nan nan nan nan nan nan nan nan nan nan nan nan nan nan nan nan nan nan nan nan nan nan nan nan nan nan nan nan nan nan nan nan nan nan nan nan nan nan nan nan nan nan nan nan nan nan nan nan nan nan nan nan nan nan nan nan nan nan nan nan nan nan nan nan nan nan nan nan
nan nan nan nan nan nan nan nan nan nan nan nan nan nan nan nan nan nan nan nan nan nan nan nan nan nan nan nan nan nan nan nan nan nan nan nan nan nan nan nan nan nan nan nan nan nan nan nan nan nan nan nan nan nan nan nan nan nan nan nan nan nan nan nan nan nan nan nan nan nan nan nan nan nan nan nan nan nan nan nan nan nan nan nan nan nan
nan nan nan nan nan nan nan nan nan nan nan nan nan nan nan nan nan nan nan nan nan nan nan nan nan nan nan nan nan nan nan nan nan nan nan nan nan nan nan nan nan nan nan nan nan nan nan nan nan nan nan nan nan nan nan nan nan nan nan nan nan nan nan nan nan nan nan nan nan nan nan nan nan nan nan nan nan nan nan nan nan nan nan nan nan nan
nan nan nan nan nan nan nan nan nan nan nan nan nan nan nan nan nan nan nan nan nan nan nan nan nan nan nan nan nan nan nan nan nan nan nan nan nan nan nan nan nan nan nan nan nan nan nan nan nan nan nan nan nan nan nan nan nan nan nan nan nan nan nan nan nan nan nan nan nan nan nan nan nan nan nan nan nan nan nan nan nan nan nan nan nan nan